THORAD DELTA 1 DEB, 42612

Orbit data source: Space-Track

THORAD DELTA 1 DEB, 42612 is space debris in SSO originally from a launch on Fri, 15 Nov 1974 UTC launched from the Air Force Western Test Range (AFWTR). Debris objects in space refer to the collection of defunct objects orbiting the Earth. Examples of debris include non-operational satellites, rocket bodies, and fragments generated from explosions, collisions, or faulty payload assembly.

Loading next visibility...
Identifier
42612, 1974-089GD
Orbit
SSO
Country
Flag of USUS
Related business
Manufacturer
Unknown
Mission
Spacecraft
Bus & Motor
Unknown
Mass
Unknown
Launch date (UTC)
1974-11-15 (52 years ago)
Launch vehicle
Unknown
Launch site
Air Force Western Test Range (AFWTR)
Object type
Payload
Rocket body
Debris
Shape & HBR
Unknown shape, 0.1 m
Radar Cross Section
Medium (>0.1 m² and <1 m²)

Expand to show TLE details & history
Last TLE update: 1 week ago

TLE from 1 week ago
0 THORAD DELTA 1 DEB
1 42612U 74089GD  26166.80923377  .00000023  00000-0  34409-3 0  9991
2 42612 101.6155 166.4884 0085666  51.9336 308.9436 12.69898668562482
Epoch: 2026-06-15T19:25Z
TLE epoch observation values (Epoch: 2026-06-15T19:25:17.797Z)
Latitude
-0.00006°
Longitude
-28.92604°
Altitude
1,343.512 km
Speed
7.205 km/s
True Right ascension
11h 05m 57s
True Declination
0° 00' 00"
Sunlit
Object was in daylight at epoch
Visualization orbit readout
Latitude
Unknown
Longitude
Unknown
Altitude
Unknown
Speed
Unknown
Apparent Right ascension
Unknown
Apparent Declination
Unknown
Sunlit
N/A
Visualization observer readout
Local Sidereal Time
21:47:26
Azimuth
Unknown
Elevation
Unknown
Doppler factor
Unknown
Orbital elements
Apogee altitude
1,446.325 km
Perigee altitude
1,313.406 km
Semi-major axis
7,758.002 km
Eccentricity
0.00857
Inclination
101.6155°
RAAN
166.4884°
Arg. of periapsis
51.9336°
True anomaly
308.17495°
Mean anomaly
308.9436°
Eccentric anomaly
308.55979°
Mean motion
3.17628 °/min
Orbital period
113.34 mins
BSTAR
0.00034409
Loading maneuver chart data...
Computing Atmospheric mass density...

Documentation

Showing up to 5 results
|